Regional Weather Roundup
Issued by NWS

Home | Current Version | Previous Version | Text Only | Print | Product List | Glossary On
Versions: 1 2 3 4 5 6 7 8 9 10 11 12 13 14 15 16 17 18 19 20 21 22 23 24 25 26 27 28 29 30 31 32 33 34 35 36 37 38 39 40 41 42 43 44 45 46 47 48 49 50
000
ASUS44 KOUN 091410
RWROK

WEATHER ROUNDUP FOR OKLAHOMA
NATIONAL WEATHER SERVICE NORMAN OK
800 AM CST FRI DEC 09 2016

NOTE: "FAIR" INDICATES FEW OR NO CLOUDS BELOW 12,000 FEET WITH NO
      SIGNIFICANT WEATHER AND/OR OBSTRUCTIONS TO VISIBILITY.

OKZ001>007-009>012-014-015-017-091500-
NORTHWEST OKLAHOMA AND THE PANHANDLE

CITY           SKY/WX    TMP DP  RH WIND       PRES   REMARKS
GAGE           CLOUDY    26  12  55 S15       30.46S WCI  14
GUYMON         CLOUDY    29  18  63 S14       30.31F WCI  18
ENID/WOODRING  CLOUDY    21  16  79 SE8       30.60F WCI  12
$$

OKZ016-021>023-033>039-044-045-091500-
SOUTHWEST OKLAHOMA

CITY           SKY/WX    TMP DP  RH WIND       PRES   REMARKS
LAWTON/REGL    CLOUDY    28  16  60 E5        30.62S WCI  23
LAWTON/FT SILL CLOUDY    28  14  57 E7        30.59S WCI  20
FREDERICK      CLOUDY    29  14  53 SE7       30.57F WCI  22
CLINTON        CLOUDY    27  12  53 S14       30.53F WCI  16
HOBART         CLOUDY    28  14  55 S13       30.57F WCI  17
ALTUS AFB      CLOUDY    29  13  53 S10       30.58F WCI  19
$$

OKZ018>020-024>031-091500-
CENTRAL OKLAHOMA

CITY           SKY/WX    TMP DP  RH WIND       PRES   REMARKS
OKLAHOMA CITY  CLOUDY    22  12  65 SE8       30.60F WCI  12
OKC/WILEY POST CLOUDY    24  11  57 SE6       30.61F WCI  17
OKC/TINKER AFB CLOUDY    19  10  69 E7        30.60F WCI  10
STILLWATER     CLOUDY    15  11  83 CALM      30.63F
GUTHRIE        CLOUDY    21  13  71 SE8       30.62F WCI  11
$$

OKZ008-013-054>072-091500-
NORTHEAST OKLAHOMA

CITY           SKY/WX    TMP DP  RH WIND       PRES   REMARKS
TULSA          PTCLDY    19  13  77 CALM      30.67F
TULSA/JONES    CLOUDY    16  12  84 CALM      30.68F
PONCA CITY     CLOUDY    17  10  74 SE6       30.63F WCI   9
BARTLESVILLE   CLOUDY    12   8  84 CALM      30.68F
MUSKOGEE       PTCLDY    15  13  91 S3        30.70S
$$

OKZ032-040>043-046>053-073>077-091500-
SOUTH CENTRAL/SOUTHEAST OKLAHOMA

CITY           SKY/WX    TMP DP  RH WIND       PRES   REMARKS
ARDMORE/DWNTWN CLOUDY    27  18  69 E3        30.65S
MCALESTER      CLOUDY    18  14  84 CALM      30.67S
$$




USA.gov is the U.S. government's official web portal to all federal, state and local government web resources and services.